This is the latest recevied weather packets stored in our database for station/object VK3VJP-13. If no packets are shown the sender has not sent any weather packets the latest 10 day(s).
| Time | Temp. | Humidity | Pressure | Rain* | Wind** | Luminosity | Snow |
|---|---|---|---|---|---|---|---|
| 1778128679 | 8.33° C | 82% | 1022.7 hPa | 0 mm | - | - | - |
| 1778128379 | 8.33° C | 82% | 1022.7 hPa | 0 mm | - | - | - |
| 1778128079 | 7.78° C | 86% | 1022.6 hPa | 0 mm | - | - | - |
| 1778127779 | 7.78° C | 86% | 1022.7 hPa | 0 mm | - | - | - |
| 1778127479 | 7.78° C | 85% | 1022.7 hPa | 0 mm | - | - | - |
| 1778127179 | 7.78° C | 85% | 1022.8 hPa | 0 mm | - | - | - |
| 1778126879 | 7.78° C | 84% | 1022.8 hPa | 0 mm | - | - | - |
| 1778126579 | 7.78° C | 81% | 1022.6 hPa | 0 mm | - | - | - |
| 1778126279 | 7.78° C | 81% | 1022.5 hPa | 0 mm | - | - | - |
| 1778125979 | 8.33° C | 85% | 1022.5 hPa | 0 mm | - | - | - |
| 1778125679 | 7.78° C | 87% | 1022.6 hPa | 0 mm | - | - | - |
| 1778125379 | 7.78° C | 88% | 1022.6 hPa | 0 mm | - | - | - |
| 1778125079 | 7.78° C | 84% | 1022.7 hPa | 0 mm | - | - | - |
| 1778124779 | 7.78° C | 84% | 1022.7 hPa | 0 mm | - | - | - |
| 1778124479 | 7.78° C | 86% | 1022.7 hPa | 0 mm | - | - | - |
| 1778124179 | 7.78° C | 86% | 1022.6 hPa | 0 mm | - | - | - |
| 1778123879 | 7.22° C | 86% | 1022.6 hPa | 0.25 mm | - | - | - |
| 1778123579 | 7.22° C | 86% | 1022.8 hPa | 0.51 mm | - | - | - |
| 1778123279 | 7.78° C | 86% | 1022.7 hPa | 0.51 mm | - | - | - |
| 1778122979 | 7.78° C | 85% | 1022.7 hPa | 0.51 mm | - | - | - |
| 1778122679 | 7.22° C | 90% | 1022.7 hPa | 0.51 mm | - | - | - |
| 1778122379 | 6.67° C | 90% | 1022.9 hPa | 0.51 mm | - | - | - |
| 1778122079 | 6.67° C | 89% | 1022.9 hPa | 0.51 mm | - | - | - |
| 1778121779 | 6.11° C | 90% | 1022.8 hPa | 0.51 mm | - | - | - |
| 1778121479 | 6.11° C | 89% | 1023 hPa | 0.51 mm | - | - | - |
* Rain latest hour (hover to see other rain measurements)
** Current wind speed in m/s (hover to see current wind gust speed)